Location: Long Barn
(38.0930°N, 120.1344°W)
Time: 22:24:40
(UTC+00:00)

DMSP B5D2-2 - Pass Details

Date: 05 August 2024
Orbit: 787 x 802 km, 98.3° (Epoch: 07 September)

Event Time Altitude Azimuth Distance (km) Brightness Sun altitude
Rises 12:06:22 0° 178° (S) 3,277 7.0 -11.5°
Reaches altitude 10° 12:08:44 10° 182° (S) 2,349 6.2 -11.1°
Maximum altitude 12:13:49 54° 260° (W) 952 4.2 -10.3°
Drops below altitude 10° 12:18:55 10° 338° (NNW) 2,357 6.6 -9.4°
Sets 12:21:18 0° 342° (NNW) 3,289 7.4 -9.0°
